Medicine Hat, Alberta

7:53 AM MDT on July 27, 2017 (GMT -0600)
Medicine Hat

Weather History for CYXH - November, 2012

Change the Weather History Date:

Thursday, November 1, 2012

  Actual Average Record
Temperature  
Mean Temperature 14 °F -  
Max Temperature 46 °F 39 °F 66 °F (2008)
Min Temperature -19 °F 17 °F -19 °F (2012)
Degree Days  
Heating Degree Days 52    
Moisture  
Dew Point 29 °F    
Average Humidity 94    
Maximum Humidity 100    
Minimum Humidity 65    
Precipitation  
Precipitation 0.00 in 0.02 in - ()
Sea Level Pressure  
Sea Level Pressure 29.92 in    
Wind  
Wind Speed 5 mph ()    
Max Wind Speed 17 mph    
Max Gust Speed 25 mph    
Visibility 6.3 miles    
Events      
Averages and records for this station are not official NWS values.
T = Trace of Precipitation, MM = Missing Value Source: Averaged Metar Reports

Daily Weather History Graph

Daily Weather History Graph

Search for Another Location

Airport or City:

Trip Planner

Search our weather history database for the weather conditions in past years. The results will help you decide how hot, cold, wet, or windy it might be!

Date:

Astronomy

Nov. 01, 2012 Rise Set
Actual Time 8:13 AM MDT 5:58 PM MDT
Civil Twilight 7:39 AM MDT 6:32 PM MDT
Nautical Twilight 7:01 AM MDT 7:10 PM MDT
Astronomical Twilight 6:23 AM MDT 7:48 PM MDT
Moon 7:45 PM MDT (11/1) 11:02 AM MDT (11/1)
Length of Visible Light 10h 53m
Length of Day
9h 44m
Waning Gibbous, 92% of the Moon is Illuminated
Nov 1
Waning Gibbous
Nov 6
Last Quarter
Nov 13
New
Nov 20
First Quarter
Nov 28
Full

Hourly Weather History & Observations

Time (MDT) Temp. Windchill Dew Point Humidity Pressure Visibility Wind Dir Wind Speed Gust Speed Precip Events Conditions
12:00 AM -18 °F - -22 °F 69% 30.10 in - South 12.7 mph - -  
12:00 AM 32.0 °F 27.5 °F 32.0 °F 100% 30.01 in 9.0 mi NE 4.6 mph - N/A   Overcast
12:51 AM 32.0 °F 26.4 °F 30.2 °F 93% 29.99 in 9.0 mi NNE 5.8 mph - N/A   Overcast
1:00 AM 32.0 °F 27.5 °F 32.0 °F 100% 29.99 in 9.0 mi NE 4.6 mph - N/A   Overcast
1:48 AM 32.0 °F - 32.0 °F 100% 29.99 in 9.0 mi Variable 2.3 mph - N/A   Mostly Cloudy
2:00 AM 32.0 °F 28.7 °F 32.0 °F 100% 29.98 in 9.0 mi North 3.5 mph - N/A   Mostly Cloudy
2:14 AM 30.2 °F - 30.2 °F 100% 29.97 in 9.0 mi North 2.3 mph - N/A   Overcast
3:00 AM 30.2 °F 26.7 °F 30.2 °F 100% 29.96 in 8.0 mi NNE 3.5 mph - N/A   Mostly Cloudy
3:02 AM 30.2 °F 25.4 °F 30.2 °F 100% 29.96 in 8.0 mi NNE 4.6 mph - N/A   Scattered Clouds
3:11 AM 32.0 °F 27.5 °F 32.0 °F 100% 29.96 in 8.0 mi NNE 4.6 mph - N/A   Mostly Cloudy
4:00 AM 32.0 °F - 32.0 °F 100% 29.95 in 9.0 mi Calm Calm - N/A   Overcast
4:50 AM 30.2 °F - 30.2 °F 100% 29.93 in 5.0 mi Variable 2.3 mph - N/A   Overcast
4:58 AM 30.2 °F - 30.2 °F 100% 29.93 in 6.0 mi Variable 2.3 mph - N/A   Overcast
5:00 AM 30.2 °F 26.7 °F 30.2 °F 100% 29.93 in 6.0 mi East 3.5 mph - N/A   Overcast
5:37 AM 30.2 °F 25.4 °F 30.2 °F 100% 29.93 in 5.0 mi SSW 4.6 mph - N/A   Overcast
6:00 AM -17 °F - -22 °F 68% 30.04 in - South 9.2 mph - -  
6:00 AM 30.2 °F - 30.2 °F 100% 29.92 in 3.0 mi Calm Calm - N/A   Overcast
6:13 AM 30.2 °F - 30.2 °F 100% 29.93 in 2.2 mi Variable 2.3 mph - N/A   Overcast
6:20 AM 30.2 °F 25.4 °F 30.2 °F 100% 29.93 in 2.0 mi SW 4.6 mph - N/A   Overcast
6:26 AM 30.2 °F 26.7 °F 30.2 °F 100% 29.92 in 1.0 mi West 3.5 mph - N/A   Overcast
7:00 AM 30.2 °F - 30.2 °F 100% 29.90 in 1.5 mi NNE 2.3 mph - N/A   Overcast
8:00 AM 30.2 °F - 30.2 °F 100% 29.91 in 2.5 mi Calm Calm - N/A   Overcast
9:00 AM 32.0 °F - 32.0 °F 100% 29.89 in 2.5 mi Variable 2.3 mph - N/A   Overcast
10:00 AM 32.0 °F - 32.0 °F 100% 29.89 in 3.0 mi Calm Calm - N/A   Mostly Cloudy
11:00 AM 33.8 °F 30.8 °F 33.8 °F 100% 29.88 in 6.0 mi East 3.5 mph - N/A   Mostly Cloudy
12:00 PM -18 °F - -23 °F 65% 29.98 in - South 12.7 mph - -  
12:00 PM 37.4 °F 33.8 °F 35.6 °F 93% 29.87 in 15.0 mi East 4.6 mph - N/A   Mostly Cloudy
1:00 PM 39.2 °F - 35.6 °F 87% 29.85 in 30.0 mi ENE 2.3 mph - N/A   Mostly Cloudy
2:00 PM 41.0 °F 39.0 °F 35.6 °F 81% 29.84 in 30.0 mi NNE 3.5 mph - N/A   Mostly Cloudy
3:00 PM 44.6 °F 42.2 °F 37.4 °F 76% 29.83 in 30.0 mi ENE 4.6 mph - N/A   Scattered Clouds
4:00 PM 46.4 °F 42.9 °F 39.2 °F 76% 29.81 in 30.0 mi East 6.9 mph - N/A   Partly Cloudy
5:00 PM 46.4 °F 44.3 °F 39.2 °F 76% 29.81 in 30.0 mi ESE 4.6 mph - N/A   Partly Cloudy
6:00 PM 42.8 °F - 39.2 °F 87% 29.82 in 30.0 mi East 2.3 mph - N/A   Partly Cloudy
7:00 PM 37.4 °F 31.4 °F 35.6 °F 93% 29.84 in 15.0 mi West 8.1 mph - N/A   Partly Cloudy
8:00 PM 39.2 °F 30.2 °F 35.6 °F 87% 29.88 in 15.0 mi WSW 17.3 mph 24.2 mph N/A   Partly Cloudy
8:21 PM 37.4 °F 27.8 °F 35.6 °F 93% 29.90 in 15.0 mi West 17.3 mph 25.3 mph N/A   Scattered Clouds
8:25 PM 37.4 °F 28.2 °F 35.6 °F 93% 29.90 in 10.0 mi West 16.1 mph 23.0 mph N/A   Overcast
8:42 PM 37.4 °F 29.3 °F 37.4 °F 100% 29.90 in 5.0 mi WSW 12.7 mph - N/A   Overcast
9:00 PM 37.4 °F 30.8 °F 35.6 °F 93% 29.90 in 4.0 mi SW 9.2 mph 23.0 mph N/A   Overcast
9:53 PM 33.8 °F 28.6 °F 33.8 °F 100% 29.93 in 2.5 mi NW 5.8 mph - N/A   Overcast
10:00 PM 33.8 °F 27.7 °F 33.8 °F 100% 29.93 in 2.5 mi WNW 6.9 mph - N/A   Overcast
10:11 PM 33.8 °F 27.0 °F 33.8 °F 100% 29.94 in 3.0 mi NW 8.1 mph - N/A   Overcast
10:49 PM 33.8 °F 27.0 °F 33.8 °F 100% 29.95 in 2.5 mi WNW 8.1 mph - N/A   Overcast
10:51 PM 33.8 °F 25.8 °F 33.8 °F 100% 29.95 in 2.0 mi WNW 10.4 mph - N/A   Overcast
11:00 PM 33.8 °F 27.0 °F 33.8 °F 100% 29.95 in 1.5 mi WNW 8.1 mph - N/A   Overcast